星链-31945 (STARLINK-31945 )

导读

STARLINK-31945是美国SpaceX星链星座中的一颗卫星,于北京时间2024年5月24日8时成功发射。星链项目旨在构建全球卫星互联网星座,为全球偏远地区、海洋空域等提供高速宽带网络服务,这颗卫星的发射进一步扩充了星链星座的在轨规模,持续推进该巨型星座的部署进程。

Basic Information
目录编号:
59870
目录名称:
STARLINK-31945
国际标识:
2024-098N
轨道中心:
EARTH
卫星名称:
星链-31945
卫星全名:
星链-31945 (STARLINK-31945 )
卫星状态:
在轨 (已飞行755 天)
发射日期:
2024-05-24 UTC
国别 :
美国 (US)
星等 :
--
Orbit Information
数据来源 国际轨道数据
星历时间: 2026-06-17T08:22:00+0800
1天前
查看轨道信息
半长轴: 6861.183km
偏心率: 0.0000688
轨道倾角: 43.007°
近地点辐角 234.448°
升交点赤经 72.997°
平近点角 125.631°
近地点: 482.573km
远地点: 483.519km
周期: 94.267分钟
每日圈数: 15.275812
Detailed Information
固有亮度:
5
最大亮度:
1.5
卫星平台:
Starlink v2.0 mini
覆盖范围:
全球
运营商:
太空探索技术公司
运营商所在国:
美国
制造商(研发单位):
太空探索技术公司
制造商所在国:
美国
使用方式:
暂无
Satellite Introduction
星链(Starlink)计划是由太空探索技术公司(SpaceX)提出的一个巨型低轨卫星互联网星座项目,计划在2019年至2024年间在太空搭建由约1.2万颗卫星组成的“星链”网络,其中1584颗将部署在地球上空550千米处的近地轨道,并从2020年开始工作。该卫星仍在工作。
2D Orbit Map
3D Orbit Map
Orbit Altitude Analysis Chart
Orbit Inclination Analysis Chart
Orbit Comprehensive Analysis Chart
View Comprehensive Chart